Hourly Data Report for July 29, 2004

SHERBROOKE A
QUEBEC

45°26'00.000" N
71°41'00.000" W
241.40 m
7028124
71610
YSC

Download Data

Hourly Data (July 2004)
Hourly Data Report for July 29, 2004
TIME
LST
Temp Definition
°C
Dew Point Definition
°C
Rel Hum Definition
%
Precip. Amount Definition
mm

Wind Dir Definition
10's deg

Wind Spd Definition
km/h
Visibility Definition
km
Stn Press Definition
kPa
Hmdx Definition


Wind Chill Definition


Weather Definition


00:00 17.5 16.4 93     0 15.0 98.71      
01:00 17.6 16.4 93   26 4 15.0 98.72      
02:00 17.4 16.4 94   28 4 15.0 98.73      
03:00 17.1 16.1 94   28 7 5.6 98.74     Drizzle
04:00 16.9 16.1 95   28 4 3.9 98.75      
05:00 16.9 16.0 94   24 4 6.4 98.81      
06:00 17.0 16.1 94   26 4 5.6 98.86      
07:00 18.1 16.7 92   25 4 24.1 98.88     Mostly Cloudy
08:00 18.8 16.1 84   25 6 24.1 98.88     Mostly Cloudy
09:00 19.8 15.7 77   29 11 24.1 98.89     Mostly Cloudy
10:00 20.5 16.2 76   30 11 24.1 98.93 25   Mostly Cloudy
11:00 22.3 17.5 74   28 11 24.1 98.91 28   Mostly Cloudy
12:00 22.7 17.0 70   28 13 19.3 98.88 28   Mainly Clear
13:00 23.3 17.1 68   24 11 24.1 98.86 29   Mainly Clear
14:00 23.6 16.2 63   25 13 24.1 98.84 28   Mainly Clear
15:00 23.8 16.0 62   21 7 24.1 98.85 28   Mostly Cloudy
16:00 25.1 16.5 59   27 17 24.1 98.84 30   Mainly Clear
17:00 25.1 16.2 58   29 7 15.0 98.83 30    
18:00 23.9 16.5 63   26 6 15.0 98.84 29    
19:00 21.2 17.7 80   23 6 15.0 98.87 27    
20:00 18.3 15.9 86   21 6 15.0 98.90      
21:00 16.7 15.0 90   20 4 15.0 98.97      
22:00 15.7 14.5 93   10 4 15.0 98.97      
23:00 15.1 14.2 94   10 6 9.7 99.00      

Notes on Data Quality.

Legend

  • E = Estimated
  • M = Missing
  • NA = Not Available*
  • [empty] = Indicates an unobserved value
Date modified: